Flag for Paraguay Weather past 2 weeks in Ciudad del Este, Paraguay

Now
59 °F

Clear.


Feels Like: 59 °F
Forecast: N/A
Wind: 5 mph from Northeast

Location: Foz Do Iguacu Aeroporto

Current Time: Jul 5, 2015 at 7:26:10 PM

Latest Report: Jul 5, 2015 at 7:00 PM


Visibility: 10 mi

Pressure: 30.01 "Hg

Humidity: 77%

Dew point: 52 °F

Location of Ciudad del EsteLocation

Historic Weather in Ciudad del Este — Graph

°F

Ciudad del Este temperature yesterday

Maximum temperature yesterday: 55 °F (at 2:00 PM)
Minimum temperature yesterday: 45 °F (at 7:00 AM)
Average temperature yesterday: 50 °F

Past Weeks' High & Low Weather Summary

 TemperatureHumidityPressure
High81 °F (Jun 22, 1:00 PM)100% (Jun 22, 7:00 AM)30.36 "Hg (Jun 22, 7:00 AM)
Low43 °F (Jul 5, 5:00 AM)37% (Jun 28, 3:00 PM)29.86 "Hg (Jun 29, 3:00 PM)
Average64 °F82%30.12 "Hg
* Reported Jun 20 6:00 PM — Jul 5 6:00 PM, Ciudad del Este, Weather by CustomWeather, © 2015

Note: Actual official high and low records may vary slightly from our data, if they occured in-between our weather recording intervals... More about our weather records

Advertising

Ciudad del Este weather history for previous 24 hours

 ConditionsComfort  
Time TempWeatherWind HumidityBarometerVisibility
6:00 PM
Sun, Jul 5
57 °FClear.5 mph88%30.01 "Hg10 mi
5:00 PM61 °FClear.5 mph77%30.01 "Hg10 mi
4:00 PM64 °FClear.7 mph64%30.01 "Hg10 mi
3:00 PM64 °FSunny.7 mph64%30.04 "Hg10 mi
2:00 PM64 °FSunny.8 mph60%30.04 "Hg10 mi
1:00 PM63 °FSunny.9 mph59%30.04 "Hg10 mi
12:00 PM61 °FSunny.6 mph59%30.09 "Hg10 mi
11:00 AM57 °FSunny.6 mph63%30.12 "Hg10 mi
10:00 AM55 °FSunny.9 mph72%30.12 "Hg10 mi
9:00 AM52 °FSunny.10 mph77%30.15 "Hg10 mi
8:00 AM46 °FSunny.8 mph87%30.12 "Hg10 mi
7:00 AM43 °FSunny.5 mph93%30.12 "Hg10 mi
6:00 AM45 °FSunny.3 mph87%30.09 "Hg10 mi
5:00 AM43 °FClear.2 mph93%30.09 "Hg10 mi
4:00 AM45 °FClear.5 mph87%30.09 "Hg10 mi
3:00 AM45 °FClear.8 mph93%30.12 "Hg10 mi
2:00 AM45 °FClear.2 mph93%30.15 "Hg10 mi
1:00 AM46 °FClear.10 mph93%30.18 "Hg10 mi
12:00 AM46 °FClear.5 mph93%30.21 "Hg10 mi
11:00 PM
Sat, Jul 4
46 °FClear.5 mph93%30.24 "Hg10 mi
10:00 PM46 °FClear.5 mph93%30.21 "Hg10 mi
9:00 PM48 °FClear.3 mph87%30.21 "Hg10 mi
8:00 PM48 °FClear.3 mph87%30.21 "Hg10 mi
7:00 PM46 °FClear.2 mph100%30.18 "Hg10 mi
Weather by CustomWeather, © 2015

See weather overviewHow to use our weather pages